Location: Ch�ze
(42.9000°N, 0.0333°W)
Time: 19:29:44
(UTC+00:00)

NOSS 3-1 (C) - Pass Details

Date: 24 January 2021
Orbit: 732 x 1476 km, 63.4° (Epoch: 05 March)

Event Time Altitude Azimuth Distance (km) Brightness Sun altitude
Rises 18:12:32 0° 325° (NW) 3,917 6.9 -12.8°
Reaches altitude 10° 18:15:06 10° 329° (NNW) 3,058 6.3 -13.3°
Maximum altitude 18:22:31 60° 49° (NE) 1,467 4.1 -14.6°
Drops below altitude 10° 18:31:05 10° 128° (SE) 3,520 6.0 -16.2°
Sets 18:34:13 0° 132° (SE) 4,543 6.6 -16.7°
